カタログに戻る

FENGYUN 1C DEB

運用中SSO
NORAD 31339·DEBRIS·🇨🇳 China

打ち上げ May 10, 1999 から Taiyuan Satellite Launch Center

Loading…

次のパス (今後24時間)

TLE

最新Source: Space-Track

元期: Sep 14, 2026, 07:11 UTC

1 31339U 99025BQT 26257.29964224  .00000887  00000-0  48713-3 0  9993
2 31339  98.7034 271.3132 0072672 260.2849  99.0110 14.12968552995686

AllMySatでFENGYUN 1C DEBをリアルタイム追跡

Download on the App Store